Vorticity
8 8 7 8 8 8 8 7 7 7 7 7 6 6 5 5 6 6 7 9 9 9 10 9 9 8 7 7 8 8 8 7 5 4 4 3 3 4 3 2 4 9 12 10 7 5 5 5 6 6 4 2 3 4 4 6 7 6 6 7 6 4 3 4 5 5 7 8 8 9 10 12 12 12 12 11 11 10 8 6 5 4 4 5 6
9 9 9 8 7 7 6 6 6 5 5 6 5 5 7 7 7 8 9 10 10 10 11 12 12 11 10 9 8 8 8 8 7 6 6 5 4 5 5 4 3 4 11 13 9 6 5 5 5 6 6 4 2 3 4 5 6 6 6 7 6 4 5 6 7 7 7 7 6 7 8 10 14 17 19 19 17 15 11 8 7 5 4 5 6
9 10 10 10 9 7 6 5 5 6 7 8 8 7 7 7 7 8 9 9 10 10 10 11 13 14 14 12 10 9 8 7 7 7 6 5 5 5 5 7 6 4 7 12 12 9 6 5 4 5 6 5 3 3 4 4 5 6 6 6 6 6 6 7 6 5 3 3 4 6 7 8 10 13 17 18 16 15 12 9 7 6 6 5 5
9 10 9 10 10 7 7 6 6 8 8 7 8 8 7 6 5 7 9 10 9 9 11 13 14 16 16 14 13 11 9 8 7 7 7 7 6 6 7 7 8 6 5 9 13 12 8 5 4 5 5 6 4 3 3 3 4 5 5 5 6 6 6 4 3 2 2 2 3 4 6 7 7 8 10 12 12 11 11 10 9 8 7 6 6
8 9 7 6 7 5 5 6 8 9 9 9 9 7 7 6 4 6 8 8 8 9 11 13 14 15 14 15 15 14 13 12 11 10 10 10 9 8 8 8 8 7 5 7 11 12 10 6 4 5 5 6 5 3 2 2 3 3 4 5 5 4 4 2 1 1 2 2 3 3 3 3 4 5 6 7 8 8 7 8 9 8 7 7 7
8 8 6 6 5 3 3 4 5 7 8 10 10 9 9 6 4 6 7 8 8 9 11 12 13 14 13 16 18 16 16 16 16 15 14 14 12 9 9 8 8 8 6 7 9 11 10 7 4 4 5 6 6 5 3 2 2 3 3 4 4 3 3 2 1 1 2 3 4 4 4 3 3 5 6 6 7 6 5 5 6 6 7 8 8
9 9 8 7 4 2 2 2 3 5 5 7 8 7 9 7 5 6 6 7 8 7 9 11 12 13 12 13 15 14 15 17 18 18 16 16 16 14 12 12 10 11 11 9 9 10 9 7 4 4 5 5 5 5 5 3 2 2 3 4 3 2 2 2 2 2 3 4 4 4 4 4 4 5 5 6 7 8 8 7 6 6 6 8 9
9 10 9 9 6 2 1 1 3 4 4 4 5 6 8 8 6 5 5 7 7 6 8 10 11 11 10 10 11 12 13 14 14 14 12 14 16 16 15 15 14 16 15 13 10 9 9 7 5 4 5 5 5 6 7 6 5 3 3 3 2 2 2 2 4 4 3 4 5 5 4 3 5 5 4 4 6 8 10 10 9 9 8 9 10
7 9 9 11 11 6 4 4 4 5 4 4 4 5 8 7 5 5 5 6 6 6 7 9 11 11 10 10 11 13 14 12 11 10 9 9 11 12 13 13 13 14 15 14 11 9 10 9 7 6 5 6 6 6 6 8 9 7 3 1 1 2 1 2 3 4 4 4 5 6 6 4 4 5 4 3 4 5 7 8 8 9 8 8 10
6 7 6 7 9 8 7 7 7 8 7 6 5 5 6 7 6 5 5 5 6 6 7 10 11 11 10 10 10 11 13 12 10 10 9 8 9 10 10 9 9 9 11 12 12 11 12 13 12 9 6 6 7 6 6 7 8 9 7 4 3 1 1 2 3 3 4 4 3 4 5 4 3 4 4 3 3 4 5 4 4 6 7 6 6
5 6 4 3 6 9 11 11 10 11 11 9 7 5 5 7 6 4 5 7 7 6 8 11 11 9 8 8 7 7 7 7 7 7 7 7 8 9 10 10 9 9 9 10 11 10 10 11 13 13 11 9 7 6 6 6 6 8 9 9 8 3 1 2 3 3 4 4 3 3 3 3 2 1 1 1 1 3 4 2 -1 -2 1 1 1
4 7 8 8 8 10 12 14 15 15 16 15 11 6 5 5 5 4 6 8 8 8 9 11 10 8 6 7 6 5 4 3 3 3 3 4 4 5 7 9 10 11 11 11 12 12 10 9 10 11 13 12 10 9 8 6 5 5 6 9 10 8 5 3 3 4 3 3 3 2 1 2 1 -1 -0 0 -0 1 3 3 -1 -4 -4 -2 -2
3 6 9 10 10 9 9 11 16 19 19 18 14 8 5 4 5 6 6 7 8 9 9 9 9 8 7 7 6 3 3 3 2 3 3 3 3 2 3 5 8 10 10 10 12 13 13 13 12 12 14 13 12 12 10 7 5 4 4 6 8 10 9 5 2 2 3 3 2 1 1 1 1 -0 -1 -0 0 0 1 1 -0 -2 -2 -2 -2
5 6 6 5 5 10 12 9 12 17 18 16 14 9 6 5 5 6 6 6 7 9 10 9 7 7 6 6 5 3 3 3 2 3 3 3 2 1 1 6 9 11 10 9 9 9 9 10 10 11 13 14 16 16 14 12 7 5 5 4 5 9 10 8 6 3 3 4 2 1 1 0 1 1 -0 -1 -0 0 0 1 1 -0 -1 -0 -1
6 6 7 2 -0 11 19 13 9 13 14 14 12 9 7 6 5 6 5 6 8 9 9 8 7 6 4 5 5 5 4 2 2 3 4 5 5 2 3 6 6 6 6 6 7 7 7 5 5 5 7 9 13 15 16 16 11 9 10 7 5 6 7 9 9 6 5 5 3 3 2 0 2 1 -0 1 1 -0 -0 0 -0 -0 1 1 1
5 6 7 4 3 16 23 14 10 13 13 12 11 10 9 7 5 5 5 7 10 10 9 9 8 6 4 3 4 6 6 4 5 4 1 2 4 5 7 8 4 2 3 3 3 4 5 6 6 5 5 4 4 7 12 14 12 11 13 11 8 6 7 9 8 7 8 6 5 4 3 3 4 2 1 2 0 1 1 0 0 1 1 1 1
3 4 6 9 14 20 17 11 14 17 14 12 11 10 10 9 6 6 8 11 13 11 10 8 6 5 5 4 4 5 6 4 4 2 -1 -1 3 5 6 6 4 2 2 4 4 4 3 4 5 6 7 7 5 4 4 5 8 11 13 12 10 9 10 10 7 7 7 6 6 5 4 4 3 1 2 2 1 2 1 -0 1 0 0 3 2
4 3 5 16 23 17 7 5 12 18 18 15 13 11 11 10 10 11 13 14 13 10 9 8 8 7 7 6 6 7 8 7 4 2 1 1 4 6 6 5 3 2 1 3 5 6 6 6 6 6 6 7 10 11 8 4 3 6 9 10 8 9 12 12 9 8 7 6 6 5 4 4 4 3 3 2 1 2 1 2 3 2 7 11 6
7 3 5 18 21 11 4 5 6 10 15 14 11 11 12 11 13 14 14 13 11 9 9 10 11 10 8 8 8 8 9 8 8 8 8 6 4 2 2 1 1 1 2 2 3 6 8 7 6 6 5 5 7 10 13 13 8 4 5 5 3 6 10 9 6 7 8 7 7 7 5 5 4 4 4 3 3 2 2 3 2 2 6 5 -2
13 6 6 16 16 7 5 6 3 4 7 7 9 12 12 11 13 12 12 11 10 10 10 9 9 8 7 7 7 8 9 9 10 12 13 13 12 9 7 5 3 2 1 2 4 6 6 6 7 6 7 9 9 8 11 15 14 9 5 2 3 7 8 5 3 4 5 5 6 7 7 7 7 7 5 4 5 4 3 4 5 5 4 -1 -3
17 11 11 16 13 5 4 6 5 4 4 6 10 13 12 12 12 12 11 10 9 8 6 5 5 5 5 6 7 8 8 8 7 6 6 8 11 11 13 14 11 6 3 4 5 3 4 7 7 6 7 9 11 12 12 12 12 11 8 5 4 4 4 4 5 6 6 8 7 5 4 6 8 8 7 6 5 5 4 4 6 5 2 3 5
18 16 14 13 8 4 3 4 5 5 5 5 7 11 12 12 12 12 12 10 8 7 6 5 5 5 5 5 5 4 3 3 3 3 4 6 7 8 10 11 9 6 5 5 5 4 5 6 6 6 6 5 6 10 11 10 10 9 9 7 4 2 2 4 5 5 7 10 11 9 10 12 12 10 10 9 8 8 7 5 6 5 1 4 5
15 14 13 11 8 6 6 5 3 4 6 4 2 4 7 8 9 10 11 10 10 9 8 8 7 5 4 5 4 4 3 2 3 3 3 5 7 8 9 7 5 4 4 5 5 3 4 5 6 8 7 5 5 5 4 5 7 9 10 8 7 6 5 2 3 5 6 7 7 6 5 8 12 13 12 9 8 9 7 5 6 7 5 6 5
10 12 12 9 7 8 10 8 5 3 5 5 2 2 4 5 5 5 5 6 6 7 7 5 4 4 3 3 4 4 4 4 4 3 2 3 6 7 5 5 4 2 2 5 5 4 3 3 4 7 7 9 10 7 2 1 5 8 9 5 3 3 2 2 3 3 4 8 11 9 4 2 5 8 10 9 7 5 5 5 6 7 5 4 1
7 10 11 9 7 7 9 11 8 4 3 5 4 4 4 2 -1 -1 1 2 2 3 3 1 1 1 1 1 3 3 3 5 5 3 1 2 5 5 4 5 5 4 4 7 7 5 5 4 4 4 6 9 11 9 5 3 3 6 8 7 5 2 2 6 7 4 5 10 12 11 9 8 5 2 2 4 3 3 5 5 4 6 6 3 -0
5 7 9 10 10 9 8 9 10 7 4 3 4 5 4 3 0 -0 0 1 0 0 0 1 2 2 2 2 3 2 3 5 4 2 -0 1 4 5 5 8 8 5 4 7 7 5 5 8 6 1 1 6 8 7 6 6 7 7 7 9 9 6 5 9 10 9 10 10 9 10 11 14 14 8 5 4 3 4 6 5 3 2 2 3 1
6 7 7 9 10 10 9 9 11 11 8 4 3 5 5 4 2 0 -0 1 1 0 -0 1 1 1 1 2 2 2 4 4 2 0 0 3 6 6 6 8 8 5 4 7 8 5 6 8 5 -0 2 6 5 4 5 4 4 4 4 7 8 7 6 5 3 3 1 -2 1 5 8 12 14 9 6 9 10 9 7 7 9 5 -1 0 1
5 6 8 9 8 8 9 10 10 12 11 8 6 5 5 4 3 2 2 3 2 1 1 1 1 1 2 3 3 4 4 2 2 1 2 4 6 6 7 7 5 4 5 6 6 6 8 9 4 2 5 5 2 2 3 2 3 5 7 8 7 6 7 4 1 1 0 -1 1 1 2 8 9 4 3 9 15 16 9 6 11 8 1 2 4
5 5 6 7 7 7 7 6 7 9 10 11 9 5 3 4 3 3 3 4 2 2 2 2 2 2 3 3 3 2 1 1 3 4 5 5 5 6 8 7 5 5 5 4 4 6 7 6 1 -0 1 2 2 5 6 6 6 7 9 11 11 10 9 7 6 6 5 5 4 1 0 3 4 5 7 7 11 14 9 7 8 2 1 10 13
6 5 4 5 8 10 9 7 7 8 7 8 8 5 4 6 6 4 5 6 4 3 2 2 2 2 2 2 1 2 3 4 5 5 5 5 5 6 7 6 6 7 5 3 3 4 5 4 1 -2 -2 -1 3 7 8 8 7 7 10 15 15 14 12 10 13 16 14 10 7 5 5 4 0 1 2 1 7 12 13 18 18 4 3 15 14
6 5 6 6 5 7 8 9 10 10 7 6 8 7 7 8 6 5 5 4 3 2 1 1 1 1 3 4 4 5 6 5 5 6 6 6 8 9 9 8 8 8 7 5 3 3 4 3 1 -0 -0 0 2 5 6 6 5 6 8 10 10 13 14 12 13 16 16 16 14 11 11 12 10 8 4 1 6 5 3 15 23 13 6 6 1
7 6 6 5 4 4 5 7 8 9 8 7 7 7 8 8 6 5 5 5 5 5 4 4 5 6 7 6 6 6 5 5 5 5 6 7 9 10 9 8 8 7 7 7 7 8 6 2 1 4 4 3 4 5 6 8 11 12 12 10 8 9 11 12 14 15 14 16 16 14 14 16 16 17 15 10 7 2 -3 3 14 17 13 7 8
7 6 7 7 7 6 7 7 8 9 8 8 7 6 8 9 8 7 8 7 6 7 7 7 7 6 5 4 4 5 5 6 7 8 8 10 9 7 6 4 4 5 5 5 6 8 7 5 6 7 7 6 8 9 11 15 20 18 15 13 11 11 13 14 15 13 12 13 14 13 13 12 12 15 16 13 10 8 4 3 9 19 23 21 21
7 7 8 8 8 8 8 7 7 6 6 6 6 6 6 6 6 6 7 6 5 5 6 5 5 5 5 4 5 6 6 8 10 11 12 10 7 4 3 2 3 5 6 6 6 6 7 8 8 8 9 11 12 15 19 22 22 18 16 15 15 15 15 12 9 9 10 9 8 8 7 7 7 10 13 15 19 18 9 5 9 16 20 20 18
9 9 10 10 9 9 8 7 6 6 5 4 5 5 6 6 6 6 6 6 5 5 5 5 4 5 4 4 5 7 8 9 9 8 6 3 1 2 3 4 5 6 6 7 7 7 8 10 10 11 13 13 15 18 20 19 18 16 15 14 14 14 12 10 9 8 6 5 9 11 11 9 8 7 4 7 17 19 8 0 7 15 16 15 15
9 9 10 10 9 8 8 7 6 6 6 6 7 7 7 7 7 6 5 5 5 5 5 5 5 5 6 8 9 9 8 8 6 5 3 3 2 2 3 5 7 8 8 9 9 10 11 12 12 13 14 13 14 17 19 17 15 14 13 13 14 13 12 13 13 12 10 12 17 20 20 16 12 12 13 13 20 23 9 -4 2 16 18 14 13
8 8 8 7 8 7 6 7 7 7 8 8 8 7 7 6 6 6 6 6 6 6 6 6 6 7 8 8 7 6 6 6 5 5 6 5 3 3 6 9 9 9 10 10 10 11 10 9 9 12 16 14 12 13 17 17 14 12 14 16 16 16 17 19 21 20 16 12 11 16 25 25 17 13 17 22 27 25 10 -4 3 15 15 16 17
7 7 6 5 6 6 5 5 6 6 7 8 7 7 7 5 5 5 5 4 5 6 6 6 6 6 5 5 5 6 7 7 8 7 5 3 3 5 9 10 10 10 11 9 8 7 6 6 7 10 14 15 13 11 14 16 13 12 13 13 14 18 19 15 13 14 14 13 13 15 20 22 18 16 25 33 34 23 5 -3 4 10 7 12 18
4 4 4 4 5 5 5 5 6 6 6 6 6 5 5 4 4 5 3 3 3 3 3 3 4 3 3 4 6 6 5 6 6 5 2 2 5 8 9 10 11 11 7 4 3 4 5 7 8 9 12 16 13 9 11 15 14 14 14 14 13 13 9 5 7 13 15 18 25 32 34 30 19 15 24 33 30 21 14 10 7 5 6 11 14
5 5 4 4 4 4 4 5 6 6 6 5 5 6 6 5 5 5 5 4 3 2 2 4 5 5 5 5 5 4 2 1 1 0 4 8 10 10 11 12 10 6 3 2 5 6 6 7 8 10 15 16 11 8 13 17 15 14 17 16 11 11 20 32 38 39 45 53 57 57 53 43 33 33 39 38 26 16 15 14 4 -0 8 14 11
6 6 6 6 6 6 6 7 7 7 7 7 8 8 7 6 7 7 7 7 7 7 7 9 9 8 7 8 7 4 1 2 6 10 16 20 18 15 13 9 4 3 4 7 8 9 8 9 11 13 18 19 16 15 17 17 15 16 16 13 13 26 49 64 57 46 54 66 59 36 13 8 29 56 60 44 31 21 11 8 8 6 8 13 12
6 5 6 6 6 6 7 7 6 6 7 7 8 9 8 8 7 7 7 10 11 11 11 12 13 10 7 5 8 11 14 18 23 25 24 21 17 12 7 3 3 7 10 11 12 13 12 13 14 14 15 18 20 22 20 14 13 15 12 11 20 32 43 53 57 47 29 17 17 23 16 10 30 57 48 16 4 3 -6 -5 8 12 5 5 7
9 8 7 7 7 7 7 8 7 7 7 8 10 11 11 11 11 12 12 14 14 15 15 15 14 15 15 15 20 24 26 26 25 21 17 14 10 6 4 6 10 13 13 13 16 18 17 18 19 15 12 12 16 21 19 11 11 16 12 9 24 37 31 31 46 48 21 -4 3 26 28 8 7 34 46 27 5 -9 -21 -18 1 12 8 5 5
13 10 7 8 8 8 7 7 6 6 8 9 10 10 10 11 13 12 11 9 9 10 11 10 11 18 24 24 23 21 17 16 15 12 8 7 6 7 11 13 13 13 13 13 16 18 18 20 20 15 12 14 17 21 19 11 12 21 15 4 22 53 49 20 8 19 36 45 40 27 24 23 13 8 18 24 14 -5 -18 -14 5 21 20 11 8
13 11 11 12 11 10 10 10 10 11 12 11 11 11 11 12 12 9 8 8 7 7 8 11 15 20 20 16 14 12 9 9 9 6 5 8 10 13 16 14 10 11 12 13 15 17 17 19 18 15 16 21 20 19 21 19 17 22 16 4 23 62 67 28 -4 2 38 66 47 4 0 32 32 -2 -14 2 7 -8 -17 -8 13 26 21 11 12
15 16 18 19 18 16 15 14 13 13 12 12 13 14 16 18 18 16 14 13 10 10 13 15 15 15 12 10 12 12 8 6 6 6 8 11 11 12 15 14 10 11 13 12 12 15 15 16 18 17 19 22 18 14 20 22 15 11 11 7 16 44 59 43 16 6 22 49 49 19 7 27 39 25 17 22 15 -4 -11 -1 13 18 16 16 23
11 12 14 15 17 17 16 14 12 10 8 9 11 12 13 16 18 19 19 17 14 13 15 14 11 10 11 13 15 13 8 6 8 9 8 7 6 9 16 17 12 12 14 12 11 13 12 13 17 18 18 20 18 12 16 20 12 6 13 17 15 28 57 76 72 57 53 61 64 50 34 32 34 32 30 25 15 4 1 4 10 16 21 26 26
4 6 8 8 8 9 12 13 11 7 5 5 7 8 7 6 7 10 16 19 17 14 13 10 7 7 9 13 18 17 10 7 9 8 6 6 7 9 13 15 12 12 14 13 11 12 12 10 13 15 15 17 16 12 13 19 16 9 14 20 14 17 46 71 61 30 9 4 5 7 13 18 20 21 22 19 14 11 11 14 21 26 25 20 14
4 7 9 8 6 6 8 8 6 4 3 2 2 2 2 1 -0 3 10 16 16 14 11 5 0 1 7 12 17 16 10 6 6 7 6 7 8 8 10 12 12 12 14 13 12 14 14 11 10 12 12 13 15 12 9 14 19 16 13 14 11 11 30 48 38 6 -13 -11 -0 11 20 22 20 21 22 19 16 18 22 25 26 22 14 9 8
5 4 5 5 4 3 3 2 2 3 3 1 -0 0 2 2 2 4 9 14 16 15 11 1 -7 -5 4 10 12 11 8 6 5 4 3 5 8 9 10 12 13 13 15 15 13 13 14 13 11 11 11 11 13 13 10 13 20 20 11 7 7 7 10 18 22 17 11 11 13 16 17 15 12 12 12 11 12 14 14 13 11 9 8 9 9
4 4 5 5 4 3 4 4 5 5 5 4 5 5 6 6 5 5 10 14 15 13 11 4 -6 -12 -7 2 8 9 7 6 6 6 4 5 8 11 11 13 14 15 16 16 14 13 14 15 14 14 16 15 14 12 9 9 16 19 12 4 2 4 4 2 3 6 7 6 8 13 17 17 15 14 11 10 9 8 6 7 8 9 9 11 13
Height
5910 5912 5913 5914 5916 5917 5919 5921 5922 5924 5925 5926 5927 5928 5929 5930 5931 5931 5932 5932 5933 5933 5934 5934 5934 5934 5935 5935 5936 5936 5937 5937 5937 5937 5938 5938 5938 5939 5939 5939 5939 5939 5939 5938 5938 5939 5939 5939 5939 5939 5939 5939 5939 5938 5938 5937 5936 5935 5935 5934 5933 5933 5932 5931 5931 5929 5928 5928 5928 5927 5925 5924 5923 5922 5920 5919 5917 5916 5915 5914 5913 5911 5910 5908 5906
5908 5910 5911 5913 5914 5916 5917 5919 5921 5922 5924 5925 5926 5927 5928 5929 5929 5930 5930 5931 5931 5931 5932 5932 5932 5932 5933 5933 5934 5934 5935 5935 5936 5936 5936 5936 5936 5937 5937 5937 5937 5937 5937 5937 5937 5937 5938 5938 5938 5938 5938 5938 5938 5937 5937 5936 5935 5934 5934 5933 5932 5931 5931 5930 5930 5929 5928 5927 5926 5925 5924 5923 5921 5920 5918 5917 5915 5914 5913 5912 5911 5909 5908 5906 5905
5906 5908 5910 5911 5913 5914 5916 5918 5919 5921 5922 5923 5924 5925 5926 5927 5928 5929 5929 5929 5929 5930 5930 5930 5930 5930 5931 5931 5932 5932 5933 5933 5934 5934 5934 5934 5934 5935 5935 5936 5936 5935 5936 5936 5936 5936 5936 5936 5936 5937 5936 5936 5936 5936 5936 5935 5934 5933 5933 5932 5931 5930 5929 5929 5928 5928 5927 5926 5925 5924 5923 5921 5920 5918 5917 5915 5914 5912 5911 5910 5909 5908 5906 5905 5903
5904 5906 5908 5909 5911 5913 5915 5916 5918 5919 5920 5921 5922 5923 5925 5926 5926 5927 5928 5928 5928 5928 5928 5928 5928 5928 5929 5929 5930 5930 5931 5931 5931 5932 5932 5932 5932 5932 5933 5933 5934 5934 5934 5934 5934 5934 5934 5934 5935 5935 5935 5935 5935 5934 5934 5934 5933 5932 5931 5931 5930 5929 5928 5927 5927 5926 5926 5925 5924 5923 5922 5921 5919 5917 5916 5915 5913 5911 5910 5908 5907 5906 5904 5903 5901
5902 5904 5906 5908 5909 5911 5913 5914 5916 5917 5918 5919 5920 5921 5922 5923 5924 5925 5926 5926 5926 5926 5926 5926 5926 5926 5927 5927 5928 5928 5929 5929 5929 5929 5930 5930 5930 5930 5930 5931 5931 5932 5932 5931 5931 5932 5932 5932 5932 5933 5933 5933 5932 5932 5932 5932 5931 5931 5930 5929 5929 5928 5927 5926 5925 5925 5924 5924 5923 5922 5921 5920 5919 5917 5916 5914 5912 5910 5909 5907 5905 5904 5902 5901 5899
5901 5903 5904 5906 5908 5910 5911 5913 5914 5915 5916 5917 5918 5919 5920 5921 5922 5923 5924 5924 5925 5925 5925 5924 5924 5925 5925 5925 5926 5926 5926 5927 5927 5927 5928 5928 5928 5928 5928 5928 5928 5929 5929 5929 5929 5929 5930 5930 5930 5930 5931 5931 5930 5930 5930 5930 5930 5929 5928 5928 5927 5926 5926 5925 5924 5923 5923 5922 5922 5921 5920 5919 5918 5916 5914 5913 5911 5909 5907 5905 5903 5901 5900 5898 5897
5899 5901 5903 5905 5907 5908 5910 5911 5912 5913 5914 5915 5916 5917 5918 5919 5920 5921 5921 5922 5923 5923 5923 5923 5923 5923 5923 5923 5924 5924 5925 5925 5926 5926 5925 5926 5926 5926 5925 5925 5926 5926 5927 5927 5927 5927 5927 5928 5928 5928 5928 5929 5929 5928 5928 5927 5928 5927 5927 5926 5926 5925 5925 5924 5923 5922 5921 5920 5919 5919 5918 5917 5916 5914 5912 5911 5909 5907 5905 5903 5901 5899 5897 5896 5894
5898 5900 5901 5903 5905 5907 5908 5909 5910 5911 5912 5913 5914 5915 5916 5917 5918 5919 5919 5920 5921 5921 5921 5921 5921 5921 5921 5922 5922 5923 5923 5924 5924 5924 5924 5924 5924 5924 5924 5924 5924 5924 5924 5925 5925 5925 5925 5926 5926 5926 5926 5927 5927 5926 5926 5925 5925 5925 5925 5924 5924 5924 5923 5923 5922 5921 5920 5918 5917 5917 5916 5915 5914 5912 5911 5909 5907 5905 5903 5901 5899 5898 5896 5894 5893
5896 5898 5900 5901 5903 5905 5906 5907 5908 5909 5910 5911 5912 5913 5914 5915 5916 5916 5917 5918 5918 5918 5919 5919 5919 5920 5920 5920 5921 5922 5922 5923 5923 5923 5923 5923 5923 5923 5923 5923 5923 5923 5923 5923 5923 5924 5924 5924 5924 5924 5924 5924 5924 5924 5924 5924 5923 5923 5923 5922 5922 5922 5922 5921 5920 5919 5918 5917 5915 5914 5914 5913 5911 5910 5909 5907 5905 5903 5901 5899 5897 5896 5894 5893 5891
5895 5897 5898 5900 5900 5901 5902 5904 5905 5906 5907 5909 5909 5910 5911 5912 5913 5914 5915 5916 5916 5916 5917 5917 5918 5918 5919 5919 5920 5921 5921 5922 5922 5922 5922 5922 5922 5922 5922 5922 5922 5922 5922 5922 5922 5922 5922 5922 5923 5922 5922 5923 5923 5923 5922 5922 5922 5921 5921 5920 5920 5919 5919 5919 5918 5917 5916 5915 5913 5912 5911 5910 5909 5908 5906 5904 5903 5901 5899 5897 5895 5893 5892 5891 5889
5894 5895 5897 5898 5898 5899 5900 5901 5902 5903 5905 5906 5907 5908 5909 5910 5911 5912 5913 5914 5914 5915 5915 5916 5917 5917 5918 5919 5919 5920 5921 5921 5921 5921 5921 5921 5920 5921 5921 5921 5921 5921 5921 5921 5921 5921 5921 5921 5921 5921 5921 5921 5921 5921 5920 5920 5920 5919 5919 5918 5917 5917 5916 5916 5916 5914 5913 5912 5911 5910 5909 5907 5906 5905 5903 5902 5900 5899 5897 5895 5893 5891 5889 5888 5887
5892 5893 5894 5896 5897 5897 5898 5898 5899 5900 5902 5903 5904 5905 5906 5907 5909 5910 5911 5912 5912 5913 5913 5915 5915 5916 5917 5918 5918 5919 5920 5920 5920 5920 5920 5920 5919 5919 5919 5920 5920 5920 5920 5919 5919 5919 5919 5919 5918 5918 5919 5919 5919 5919 5918 5917 5917 5916 5915 5915 5915 5914 5914 5913 5912 5911 5910 5909 5908 5907 5906 5905 5903 5902 5901 5899 5897 5896 5894 5893 5891 5889 5887 5886 5884
5890 5891 5892 5893 5894 5895 5896 5896 5896 5897 5898 5900 5901 5902 5903 5905 5907 5908 5909 5910 5910 5911 5912 5913 5914 5915 5916 5916 5917 5918 5918 5919 5919 5919 5919 5919 5918 5918 5918 5918 5919 5919 5919 5918 5918 5918 5918 5917 5916 5916 5916 5917 5917 5916 5916 5915 5914 5913 5912 5911 5912 5911 5911 5910 5909 5908 5907 5906 5905 5904 5903 5902 5901 5899 5898 5896 5895 5893 5892 5890 5889 5887 5885 5883 5881
5887 5889 5890 5891 5892 5893 5893 5894 5894 5894 5895 5896 5897 5899 5901 5903 5904 5905 5906 5906 5908 5909 5910 5911 5912 5913 5914 5915 5915 5916 5917 5917 5918 5918 5918 5918 5917 5916 5916 5917 5918 5918 5918 5917 5917 5916 5916 5915 5915 5914 5914 5914 5915 5914 5913 5913 5912 5910 5908 5908 5908 5908 5908 5907 5906 5905 5904 5903 5902 5901 5900 5898 5897 5896 5895 5893 5891 5890 5889 5887 5886 5884 5882 5881 5878
5884 5886 5887 5888 5889 5890 5891 5891 5892 5892 5893 5894 5895 5897 5899 5900 5901 5901 5903 5904 5905 5907 5908 5909 5910 5911 5911 5912 5913 5914 5915 5915 5916 5916 5916 5916 5916 5915 5915 5915 5916 5916 5916 5916 5915 5915 5914 5913 5913 5913 5912 5912 5912 5912 5911 5910 5909 5907 5905 5905 5905 5905 5904 5904 5903 5902 5901 5899 5898 5897 5896 5895 5894 5892 5891 5890 5888 5886 5885 5884 5882 5881 5879 5877 5875
5882 5883 5885 5886 5887 5887 5888 5889 5889 5890 5891 5892 5893 5895 5896 5897 5898 5898 5900 5901 5903 5904 5905 5906 5908 5908 5909 5910 5910 5912 5913 5913 5914 5914 5914 5914 5914 5913 5913 5913 5913 5914 5914 5914 5913 5913 5912 5911 5910 5910 5909 5909 5909 5909 5908 5907 5906 5904 5902 5902 5901 5900 5900 5901 5900 5899 5898 5896 5894 5893 5892 5891 5890 5888 5887 5886 5885 5883 5881 5880 5878 5876 5874 5873 5871
5879 5880 5882 5883 5884 5885 5886 5887 5887 5887 5888 5890 5891 5893 5894 5895 5895 5896 5897 5898 5900 5901 5902 5903 5904 5905 5906 5907 5908 5909 5910 5910 5911 5912 5912 5912 5911 5911 5911 5910 5910 5910 5910 5910 5910 5910 5909 5908 5907 5907 5907 5906 5906 5905 5904 5903 5903 5901 5900 5899 5898 5897 5897 5898 5897 5895 5894 5893 5891 5889 5888 5888 5886 5885 5883 5882 5881 5879 5877 5875 5874 5872 5870 5868 5866
5876 5877 5878 5880 5881 5882 5883 5884 5884 5885 5886 5887 5888 5890 5890 5892 5893 5893 5894 5895 5897 5898 5899 5900 5901 5902 5904 5905 5905 5907 5908 5908 5909 5909 5909 5909 5909 5909 5908 5907 5906 5907 5907 5906 5906 5906 5906 5906 5905 5904 5903 5903 5902 5902 5900 5899 5899 5898 5896 5895 5894 5893 5894 5894 5892 5890 5890 5888 5887 5886 5885 5883 5882 5881 5880 5878 5877 5875 5873 5870 5868 5867 5865 5863 5861
5872 5874 5875 5877 5878 5879 5881 5882 5882 5883 5883 5884 5885 5886 5887 5888 5889 5890 5891 5892 5893 5895 5896 5897 5899 5900 5901 5902 5903 5904 5905 5906 5906 5906 5907 5906 5905 5905 5905 5904 5903 5903 5903 5902 5901 5901 5901 5901 5901 5901 5900 5899 5898 5897 5896 5895 5893 5893 5892 5890 5889 5890 5891 5889 5886 5885 5884 5883 5882 5881 5880 5879 5878 5877 5876 5874 5872 5871 5869 5866 5864 5862 5861 5859 5856
5868 5870 5872 5874 5875 5877 5878 5879 5880 5880 5881 5882 5882 5883 5884 5885 5886 5887 5888 5889 5890 5892 5893 5894 5896 5897 5899 5900 5901 5902 5902 5903 5903 5903 5903 5902 5901 5901 5900 5900 5900 5900 5898 5897 5897 5897 5896 5896 5896 5896 5895 5894 5893 5892 5891 5890 5889 5887 5885 5885 5885 5886 5884 5882 5881 5880 5879 5879 5878 5876 5875 5875 5873 5872 5871 5869 5868 5866 5865 5862 5859 5857 5855 5854 5852
5864 5866 5868 5870 5872 5874 5875 5876 5877 5878 5878 5879 5879 5880 5881 5882 5883 5884 5885 5886 5888 5889 5890 5891 5893 5894 5896 5897 5897 5898 5899 5899 5900 5900 5899 5899 5898 5896 5896 5896 5896 5895 5894 5893 5892 5892 5892 5891 5890 5890 5889 5888 5888 5887 5886 5885 5884 5882 5880 5880 5881 5880 5878 5876 5876 5874 5873 5874 5874 5872 5870 5869 5868 5867 5866 5864 5863 5861 5860 5858 5855 5851 5849 5849 5848
5861 5863 5865 5867 5869 5870 5872 5873 5874 5875 5876 5876 5877 5877 5878 5879 5880 5881 5883 5884 5885 5886 5887 5888 5889 5891 5892 5893 5894 5895 5895 5895 5896 5896 5896 5895 5894 5892 5892 5892 5891 5890 5888 5888 5888 5888 5887 5885 5884 5884 5883 5883 5882 5882 5881 5880 5878 5877 5876 5875 5875 5874 5872 5871 5870 5868 5868 5868 5868 5867 5866 5864 5863 5862 5861 5860 5858 5855 5854 5852 5850 5847 5844 5843 5843
5858 5860 5861 5863 5865 5866 5868 5870 5871 5872 5873 5873 5874 5875 5875 5876 5877 5879 5880 5881 5882 5883 5884 5885 5886 5887 5888 5889 5890 5890 5890 5891 5891 5891 5891 5890 5889 5888 5888 5888 5886 5884 5883 5883 5883 5882 5881 5880 5878 5877 5877 5877 5877 5876 5876 5875 5873 5873 5873 5871 5869 5868 5866 5864 5863 5863 5862 5862 5862 5861 5861 5859 5858 5856 5855 5854 5852 5849 5847 5846 5844 5842 5839 5837 5837
5855 5856 5858 5860 5861 5862 5864 5866 5867 5868 5869 5870 5871 5872 5872 5873 5875 5875 5876 5877 5878 5879 5880 5881 5882 5883 5883 5884 5885 5885 5885 5885 5886 5886 5886 5885 5884 5883 5883 5882 5881 5879 5877 5878 5878 5877 5875 5874 5872 5871 5871 5872 5871 5871 5870 5870 5869 5869 5868 5866 5864 5862 5859 5856 5856 5856 5855 5855 5855 5855 5855 5854 5852 5850 5848 5847 5845 5843 5841 5840 5839 5837 5834 5831 5831
5851 5853 5854 5856 5857 5858 5860 5862 5863 5864 5865 5866 5867 5868 5869 5870 5871 5872 5873 5874 5875 5876 5876 5877 5878 5878 5879 5879 5879 5879 5879 5880 5880 5880 5879 5879 5878 5878 5877 5877 5875 5873 5872 5873 5873 5872 5870 5868 5866 5865 5866 5866 5866 5865 5864 5864 5863 5863 5862 5861 5858 5856 5853 5849 5847 5847 5847 5848 5848 5848 5847 5847 5846 5844 5841 5839 5838 5837 5835 5834 5833 5832 5828 5824 5825
5847 5849 5850 5852 5853 5854 5855 5857 5859 5860 5861 5862 5864 5865 5866 5866 5867 5868 5869 5870 5871 5871 5872 5872 5873 5874 5874 5874 5875 5874 5874 5874 5874 5873 5872 5872 5872 5872 5872 5872 5871 5869 5868 5867 5868 5866 5864 5861 5859 5860 5861 5861 5860 5860 5859 5858 5857 5856 5856 5854 5852 5849 5847 5842 5838 5837 5838 5840 5840 5841 5840 5840 5839 5837 5834 5832 5831 5831 5830 5828 5827 5825 5821 5818 5818
5843 5845 5846 5847 5849 5850 5851 5852 5854 5855 5857 5858 5859 5860 5861 5862 5863 5864 5865 5865 5866 5867 5867 5868 5868 5868 5869 5869 5869 5869 5869 5868 5867 5865 5864 5865 5867 5867 5867 5866 5865 5864 5862 5862 5862 5859 5855 5853 5854 5855 5855 5855 5854 5853 5852 5851 5849 5848 5847 5846 5844 5842 5840 5836 5831 5829 5829 5830 5830 5831 5831 5831 5830 5829 5828 5827 5825 5824 5822 5821 5820 5818 5815 5812 5812
5839 5841 5842 5843 5844 5846 5847 5848 5849 5851 5852 5853 5855 5856 5857 5858 5858 5859 5860 5861 5861 5862 5863 5863 5863 5863 5863 5863 5863 5863 5863 5863 5861 5860 5859 5860 5860 5861 5861 5860 5859 5858 5856 5856 5854 5849 5844 5846 5849 5850 5849 5848 5847 5845 5844 5843 5842 5840 5838 5836 5835 5834 5831 5828 5825 5822 5822 5823 5821 5820 5821 5821 5821 5820 5820 5820 5819 5817 5815 5814 5813 5811 5808 5806 5806
5834 5836 5837 5838 5839 5841 5842 5844 5845 5846 5847 5849 5850 5850 5852 5853 5853 5854 5855 5856 5857 5857 5858 5858 5858 5858 5857 5857 5857 5857 5857 5857 5856 5855 5855 5854 5853 5853 5853 5853 5852 5851 5849 5849 5846 5841 5837 5839 5842 5842 5841 5840 5839 5837 5837 5836 5834 5832 5829 5827 5825 5823 5822 5820 5818 5816 5815 5814 5812 5811 5811 5811 5811 5810 5810 5811 5811 5810 5808 5806 5806 5803 5801 5800 5800
5829 5831 5833 5834 5835 5837 5839 5840 5841 5841 5842 5844 5845 5845 5847 5848 5849 5849 5850 5851 5852 5852 5852 5852 5852 5852 5851 5851 5851 5851 5851 5851 5850 5849 5848 5847 5846 5845 5845 5845 5845 5844 5842 5841 5839 5835 5832 5832 5833 5833 5831 5830 5829 5828 5828 5827 5824 5822 5820 5818 5815 5812 5811 5810 5810 5809 5806 5804 5803 5802 5802 5802 5801 5800 5800 5801 5802 5802 5800 5798 5798 5796 5793 5793 5793
5825 5827 5829 5830 5831 5833 5834 5835 5836 5837 5838 5839 5840 5841 5843 5844 5844 5844 5845 5846 5847 5847 5847 5846 5846 5846 5846 5845 5846 5846 5845 5845 5844 5843 5842 5840 5839 5838 5837 5836 5836 5836 5835 5833 5832 5829 5826 5825 5825 5825 5824 5821 5819 5818 5818 5817 5815 5812 5810 5808 5805 5802 5800 5800 5801 5799 5796 5793 5792 5791 5790 5791 5791 5790 5790 5791 5792 5792 5791 5790 5789 5789 5787 5786 5785
5821 5822 5823 5824 5826 5828 5828 5829 5831 5833 5834 5834 5834 5836 5837 5838 5838 5838 5839 5840 5841 5841 5841 5841 5841 5840 5840 5839 5839 5839 5839 5838 5837 5836 5835 5834 5832 5831 5830 5829 5828 5827 5826 5824 5823 5822 5820 5817 5816 5816 5815 5813 5811 5810 5809 5808 5805 5802 5799 5797 5795 5793 5791 5791 5791 5788 5782 5780 5780 5779 5779 5781 5781 5781 5782 5783 5781 5781 5781 5781 5780 5780 5780 5779 5779
5816 5817 5818 5820 5821 5822 5823 5824 5826 5827 5828 5828 5829 5830 5831 5832 5832 5833 5833 5834 5834 5834 5834 5834 5835 5834 5834 5833 5833 5832 5831 5830 5829 5828 5827 5826 5825 5824 5823 5822 5820 5818 5817 5815 5813 5812 5811 5808 5807 5807 5805 5803 5801 5800 5799 5798 5796 5793 5789 5785 5784 5783 5782 5781 5779 5775 5771 5769 5769 5768 5768 5770 5770 5771 5774 5774 5772 5770 5771 5771 5771 5771 5771 5771 5771
5810 5811 5813 5814 5816 5817 5818 5819 5820 5821 5822 5823 5823 5824 5825 5825 5826 5827 5827 5827 5827 5827 5828 5828 5828 5828 5827 5827 5826 5825 5825 5824 5822 5821 5819 5818 5817 5817 5816 5814 5813 5811 5809 5806 5804 5802 5800 5798 5797 5796 5795 5793 5791 5789 5787 5787 5786 5782 5779 5776 5775 5774 5773 5770 5766 5764 5761 5759 5757 5755 5756 5758 5759 5761 5764 5764 5763 5762 5762 5762 5762 5762 5761 5761 5763
5805 5806 5808 5809 5810 5811 5813 5814 5815 5815 5816 5817 5818 5818 5818 5819 5819 5820 5821 5821 5820 5821 5821 5821 5821 5821 5820 5820 5819 5818 5817 5816 5815 5814 5812 5811 5810 5810 5809 5807 5805 5803 5801 5799 5797 5794 5792 5790 5788 5787 5785 5783 5781 5779 5777 5776 5774 5771 5768 5766 5765 5764 5763 5759 5754 5752 5749 5746 5743 5743 5745 5746 5747 5750 5752 5753 5752 5753 5753 5753 5754 5754 5753 5753 5754
5799 5801 5802 5803 5804 5805 5807 5808 5809 5809 5810 5811 5811 5812 5812 5812 5812 5813 5813 5814 5813 5814 5814 5814 5814 5814 5813 5813 5812 5811 5810 5809 5807 5806 5805 5805 5804 5803 5802 5800 5797 5795 5793 5792 5790 5788 5785 5783 5781 5779 5776 5774 5772 5771 5768 5766 5764 5761 5758 5756 5755 5753 5751 5747 5744 5740 5737 5733 5732 5733 5734 5734 5736 5738 5740 5740 5742 5744 5744 5744 5746 5747 5746 5745 5746
5793 5794 5796 5797 5798 5799 5800 5801 5802 5803 5803 5804 5805 5805 5805 5806 5806 5806 5806 5806 5806 5807 5807 5807 5807 5807 5807 5805 5804 5803 5802 5801 5800 5799 5798 5797 5796 5795 5793 5792 5790 5787 5785 5783 5781 5779 5777 5775 5772 5770 5768 5765 5763 5761 5759 5756 5754 5750 5748 5746 5744 5741 5738 5735 5731 5728 5725 5721 5719 5719 5720 5722 5724 5727 5728 5729 5732 5735 5736 5736 5738 5740 5739 5737 5737
5787 5788 5789 5791 5792 5793 5794 5795 5795 5796 5797 5797 5798 5798 5798 5799 5799 5799 5799 5799 5799 5799 5800 5800 5800 5800 5799 5797 5796 5795 5794 5793 5792 5791 5790 5789 5788 5786 5785 5783 5781 5779 5777 5775 5773 5771 5769 5766 5763 5761 5759 5756 5753 5751 5749 5746 5743 5739 5736 5733 5731 5728 5725 5721 5716 5713 5712 5709 5705 5705 5708 5710 5712 5715 5717 5719 5722 5726 5727 5727 5729 5731 5731 5731 5731
5780 5782 5783 5784 5785 5786 5787 5787 5788 5789 5790 5790 5791 5791 5791 5792 5792 5792 5792 5792 5792 5792 5792 5791 5791 5792 5791 5789 5788 5788 5786 5785 5783 5782 5781 5781 5780 5779 5777 5775 5774 5771 5769 5767 5765 5763 5760 5757 5754 5751 5749 5747 5745 5742 5739 5736 5734 5730 5726 5721 5717 5714 5711 5705 5698 5695 5694 5693 5692 5693 5696 5699 5701 5703 5706 5708 5712 5718 5719 5719 5721 5724 5725 5725 5726
5773 5774 5775 5777 5778 5778 5779 5781 5781 5782 5783 5783 5783 5783 5784 5785 5784 5784 5784 5784 5784 5784 5784 5783 5783 5783 5783 5781 5780 5779 5778 5776 5775 5775 5774 5773 5772 5771 5769 5768 5766 5764 5761 5759 5756 5754 5751 5748 5745 5742 5740 5739 5736 5733 5730 5727 5724 5720 5716 5711 5706 5701 5695 5689 5683 5678 5675 5675 5677 5680 5683 5687 5690 5693 5695 5699 5705 5710 5712 5712 5714 5718 5719 5719 5720
5765 5766 5768 5769 5770 5770 5772 5773 5774 5774 5775 5775 5775 5776 5777 5777 5777 5776 5776 5776 5776 5776 5775 5774 5774 5775 5774 5773 5771 5770 5769 5769 5768 5768 5767 5766 5765 5764 5762 5760 5758 5756 5753 5751 5748 5746 5743 5740 5737 5734 5733 5731 5728 5725 5722 5719 5715 5711 5706 5701 5696 5689 5681 5674 5670 5666 5664 5663 5665 5668 5673 5679 5681 5682 5685 5692 5698 5702 5703 5704 5707 5711 5712 5713 5714
5757 5758 5759 5761 5761 5762 5764 5765 5765 5766 5767 5767 5768 5768 5769 5768 5768 5768 5768 5768 5768 5768 5768 5767 5766 5766 5766 5765 5763 5763 5762 5761 5761 5760 5759 5758 5757 5756 5754 5753 5750 5747 5745 5742 5739 5737 5734 5731 5729 5727 5724 5723 5721 5718 5714 5710 5707 5702 5697 5691 5685 5679 5672 5665 5661 5658 5656 5655 5655 5660 5668 5676 5678 5677 5681 5686 5689 5691 5694 5697 5700 5703 5705 5707 5707
5750 5750 5751 5752 5753 5754 5755 5756 5757 5758 5759 5759 5759 5760 5760 5759 5760 5760 5760 5761 5761 5760 5760 5759 5758 5757 5757 5757 5757 5756 5755 5754 5753 5752 5751 5750 5749 5748 5746 5744 5742 5739 5736 5733 5730 5728 5725 5722 5720 5718 5715 5713 5713 5712 5708 5703 5698 5694 5689 5685 5679 5672 5666 5662 5659 5655 5653 5652 5653 5658 5666 5673 5675 5676 5678 5680 5680 5682 5686 5691 5693 5695 5698 5700 5701
5742 5741 5743 5745 5746 5746 5747 5748 5749 5750 5750 5751 5751 5751 5751 5752 5752 5753 5753 5753 5752 5751 5751 5752 5751 5749 5749 5749 5749 5749 5747 5746 5745 5744 5743 5742 5741 5739 5738 5736 5733 5731 5728 5725 5722 5720 5716 5713 5711 5709 5705 5704 5704 5703 5700 5697 5693 5688 5682 5678 5674 5668 5662 5659 5657 5653 5649 5648 5652 5659 5666 5670 5671 5670 5671 5673 5675 5678 5682 5686 5687 5689 5691 5694 5696
5733 5733 5736 5738 5738 5737 5739 5741 5742 5742 5742 5743 5743 5743 5743 5744 5744 5745 5745 5744 5743 5743 5743 5744 5742 5741 5741 5741 5741 5740 5739 5738 5737 5736 5736 5735 5733 5731 5729 5727 5725 5723 5720 5718 5715 5712 5709 5706 5703 5701 5697 5695 5695 5694 5691 5688 5685 5680 5675 5670 5665 5661 5656 5654 5655 5653 5650 5649 5652 5657 5660 5664 5665 5664 5663 5665 5669 5674 5678 5681 5683 5684 5686 5689 5692
5725 5727 5729 5730 5730 5730 5732 5733 5734 5734 5735 5735 5735 5735 5735 5736 5736 5736 5736 5735 5735 5735 5735 5735 5734 5733 5733 5733 5732 5732 5731 5730 5729 5729 5728 5727 5725 5723 5721 5719 5717 5715 5713 5711 5708 5705 5702 5699 5697 5694 5691 5689 5688 5686 5683 5679 5675 5671 5667 5663 5658 5654 5650 5649 5650 5649 5649 5650 5652 5652 5652 5655 5657 5657 5656 5658 5663 5668 5673 5677 5679 5681 5683 5685 5687
5718 5720 5721 5722 5722 5723 5724 5725 5726 5726 5727 5727 5728 5728 5727 5727 5727 5727 5727 5727 5727 5727 5727 5726 5726 5726 5726 5725 5724 5723 5723 5722 5721 5721 5720 5719 5717 5715 5713 5711 5709 5707 5706 5704 5702 5699 5696 5693 5691 5688 5685 5684 5682 5680 5677 5673 5669 5666 5663 5661 5659 5656 5654 5653 5652 5649 5648 5651 5655 5657 5657 5657 5657 5658 5659 5661 5664 5669 5672 5674 5676 5678 5679 5680 5682
5710 5711 5712 5713 5714 5715 5716 5717 5717 5718 5719 5719 5719 5719 5719 5719 5719 5719 5719 5719 5719 5719 5718 5718 5718 5718 5717 5716 5715 5715 5715 5714 5714 5713 5712 5710 5709 5707 5705 5703 5701 5700 5698 5697 5695 5692 5689 5687 5685 5683 5680 5679 5678 5677 5674 5670 5666 5664 5662 5662 5660 5659 5659 5660 5659 5657 5656 5657 5660 5662 5663 5663 5663 5663 5664 5665 5667 5669 5670 5671 5672 5673 5675 5676 5678
5702 5703 5704 5705 5706 5707 5707 5708 5709 5709 5710 5711 5711 5710 5710 5710 5710 5710 5710 5710 5710 5710 5710 5710 5710 5710 5709 5709 5708 5708 5707 5707 5706 5705 5704 5703 5701 5699 5697 5696 5694 5693 5692 5690 5688 5686 5683 5681 5679 5677 5675 5673 5673 5673 5672 5669 5665 5663 5662 5662 5661 5660 5660 5661 5662 5661 5661 5660 5660 5661 5661 5661 5662 5662 5663 5663 5664 5665 5666 5667 5668 5669 5671 5672 5673
5694 5694 5695 5696 5697 5698 5698 5699 5699 5700 5701 5702 5702 5701 5701 5701 5701 5702 5702 5701 5702 5702 5702 5702 5702 5702 5701 5701 5700 5699 5699 5699 5698 5698 5697 5695 5694 5692 5691 5689 5687 5686 5686 5685 5683 5680 5677 5674 5672 5671 5671 5669 5667 5667 5667 5666 5664 5662 5660 5660 5659 5659 5659 5659 5660 5660 5660 5659 5659 5658 5659 5658 5658 5658 5659 5660 5661 5662 5663 5665 5666 5667 5668 5668 5668
5685 5686 5687 5688 5689 5689 5689 5690 5690 5691 5692 5693 5693 5693 5692 5692 5692 5693 5693 5693 5693 5694 5694 5694 5694 5694 5693 5693 5692 5692 5691 5691 5691 5690 5689 5688 5687 5686 5684 5683 5682 5681 5680 5679 5677 5675 5671 5668 5666 5665 5665 5664 5663 5662 5661 5661 5660 5659 5658 5658 5657 5656 5656 5656 5656 5656 5657 5657 5657 5656 5656 5656 5656 5657 5657 5658 5659 5660 5661 5662 5663 5663 5663 5663 5663